Location: DARK SKY Beskydy - Park tmavé oblohy, www.darkskybeskydy.cz
(49.4926°N, 18.5016°E)
Time: 03:06:22
(UTC+01:00)

N. Korean satellite - Pass Details

Date: 10 December 2022
Orbit: 407 x 442 km, 97.3° (Epoch: 05 February)

Event Time Altitude Azimuth Distance (km) Brightness Sun altitude
Rises 05:11:48 0° 13° (NNE) 2,503 10.2 -21.5°
Reaches altitude 10° 05:13:53 10° 14° (NNE) 1,615 9.2 -21.1°
Maximum altitude 05:17:21 85° 101° (E) 463 6.4 -20.6°
Drops below altitude 10° 05:20:44 10° 192° (SSW) 1,571 9.1 -20.0°
Sets 05:22:43 0° 193° (SSW) 2,426 10.1 -19.7°
